QPF
0.03 0.04 0.03 0.03 0.02 0.02 0.01 0.01 0.02 0.03 0.04 0.04 0.04 0.05 0.05 0.05 0.05 0.05 0.05 0.05 0.06 0.07 0.06 0.06 0.05 0.02 0.02 0.02 0.03 0.04 0.05 0.07 0.08 0.07 0.08 0.06 0.04 0.03 0.02 0.02 0.02 0.02 0.02
0.02 0.02 0.02 0.03 0.03 0.02 0.02 0.02 0.02 0.04 0.05 0.04 0.04 0.04 0.04 0.04 0.04 0.04 0.04 0.05 0.07 0.07 0.08 0.07 0.05 0.03 0.02 0.03 0.04 0.04 0.04 0.05 0.05 0.06 0.06 0.06 0.04 0.03 0.03 0.03 0.02 0.02 0.02
0.03 0.03 0.03 0.03 0.03 0.03 0.02 0.02 0.02 0.03 0.03 0.03 0.03 0.04 0.03 0.03 0.03 0.03 0.03 0.04 0.04 0.04 0.05 0.04 0.03 0.02 0.02 0.02 0.03 0.04 0.04 0.04 0.05 0.04 0.05 0.04 0.03 0.03 0.03 0.03 0.03 0.03 0.02
0.03 0.04 0.04 0.03 0.03 0.03 0.02 0.02 0.02 0.02 0.02 0.03 0.04 0.04 0.04 0.02 0.02 0.02 0.02 0.03 0.03 0.03 0.03 0.03 0.02 0.02 0.02 0.02 0.03 0.04 0.06 0.06 0.05 0.05 0.04 0.03 0.03 0.03 0.03 0.03 0.03 0.02 0.01
0.03 0.03 0.03 0.04 0.04 0.03 0.03 0.03 0.03 0.03 0.03 0.03 0.04 0.04 0.03 0.02 0.01 0.02 0.02 0.02 0.02 0.02 0.02 0.02 0.02 0.02 0.02 0.03 0.03 0.04 0.05 0.06 0.06 0.05 0.04 0.04 0.03 0.03 0.02 0.02 0.02 0.02 0.02
0.03 0.03 0.04 0.04 0.05 0.03 0.03 0.03 0.03 0.03 0.04 0.03 0.04 0.04 0.03 0.01 0.01 0.01 0.02 0.02 0.02 0.02 0.02 0.02 0.03 0.03 0.02 0.02 0.02 0.03 0.04 0.05 0.06 0.05 0.05 0.05 0.04 0.03 0.02 0.02 0.02 0.03 0.02
0.03 0.04 0.06 0.06 0.04 0.04 0.03 0.03 0.03 0.04 0.04 0.04 0.04 0.04 0.04 0.04 0.03 0.01 0.01 0.01 0.02 0.02 0.02 0.03 0.02 0.02 0.03 0.04 0.04 0.03 0.03 0.04 0.05 0.06 0.06 0.05 0.05 0.05 0.04 0.04 0.04 0.03 0.03
0.03 0.03 0.03 0.04 0.04 0.04 0.03 0.03 0.03 0.04 0.03 0.03 0.03 0.04 0.04 0.04 0.03 0.03 0.02 0.02 0.02 0.02 0.02 0.03 0.02 0.02 0.02 0.03 0.04 0.04 0.04 0.04 0.04 0.05 0.06 0.07 0.08 0.07 0.05 0.05 0.05 0.05 0.04
0.02 0.03 0.02 0.02 0.03 0.03 0.03 0.04 0.05 0.05 0.04 0.04 0.03 0.03 0.04 0.04 0.03 0.03 0.03 0.03 0.02 0.02 0.02 0.02 0.02 0.02 0.02 0.02 0.02 0.03 0.03 0.03 0.04 0.04 0.05 0.05 0.06 0.08 0.07 0.07 0.06 0.07 0.06
0.05 0.04 0.03 0.03 0.03 0.02 0.02 0.02 0.03 0.05 0.05 0.04 0.03 0.02 0.02 0.03 0.05 0.04 0.03 0.03 0.02 0.02 0.03 0.03 0.02 0.02 0.02 0.03 0.03 0.04 0.03 0.03 0.02 0.02 0.03 0.04 0.03 0.04 0.05 0.07 0.08 0.05 0.04
0.03 0.05 0.06 0.04 0.04 0.03 0.02 0.02 0.03 0.04 0.04 0.04 0.04 0.03 0.03 0.03 0.03 0.04 0.03 0.02 0.02 0.02 0.02 0.03 0.04 0.04 0.03 0.04 0.05 0.05 0.04 0.03 0.03 0.02 0.02 0.03 0.03 0.03 0.04 0.05 0.09 0.09 0.05
0.01 0.02 0.04 0.06 0.03 0.03 0.02 0.02 0.03 0.03 0.03 0.02 0.02 0.02 0.03 0.03 0.03 0.03 0.02 0.01 0.01 0.02 0.02 0.02 0.03 0.04 0.04 0.04 0.04 0.03 0.04 0.03 0.04 0.04 0.03 0.02 0.03 0.03 0.03 0.04 0.05 0.08 0.08
0.02 0.01 0.01 0.03 0.03 0.03 0.03 0.03 0.02 0.02 0.02 0.01 0.02 0.02 0.03 0.02 0.02 0.02 0.02 0.02 0.02 0.01 0.02 0.02 0.02 0.03 0.03 0.03 0.03 0.03 0.04 0.03 0.03 0.04 0.03 0.02 0.02 0.02 0.03 0.03 0.04 0.05 0.06
0.03 0.02 0.01 0.01 0.02 0.03 0.04 0.04 0.03 0.02 0.02 0.01 0.02 0.02 0.03 0.02 0.01 0.01 0.02 0.01 0.01 0.02 0.02 0.02 0.02 0.02 0.02 0.02 0.03 0.03 0.04 0.04 0.03 0.03 0.03 0.02 0.02 0.02 0.02 0.03 0.03 0.04 0.05
0.03 0.02 0.01 0.01 0.01 0.02 0.02 0.03 0.03 0.02 0.02 0.02 0.02 0.03 0.03 0.03 0.03 0.02 0.02 0.02 0.02 0.02 0.03 0.03 0.02 0.02 0.02 0.02 0.02 0.03 0.02 0.02 0.02 0.02 0.03 0.03 0.03 0.02 0.02 0.02 0.02 0.03 0.05
0.02 0.02 0.01 0.01 0.01 0.02 0.02 0.02 0.02 0.02 0.02 0.02 0.03 0.03 0.03 0.02 0.03 0.02 0.02 0.02 0.03 0.04 0.04 0.03 0.02 0.02 0.02 0.03 0.03 0.04 0.04 0.03 0.03 0.02 0.03 0.03 0.03 0.03 0.03 0.02 0.01 0.02 0.02
0.01 0.01 0.01 0.01 0.01 0.01 0.02 0.02 0.03 0.03 0.03 0.03 0.03 0.04 0.04 0.03 0.02 0.03 0.03 0.04 0.04 0.04 0.04 0.03 0.03 0.03 0.04 0.04 0.04 0.04 0.03 0.03 0.03 0.03 0.03 0.02 0.02 0.02 0.02 0.02 0.01 0.01 0.01
0.01 0.01 0.01 0.01 0.01 0.01 0.01 0.02 0.03 0.04 0.04 0.03 0.03 0.03 0.03 0.03 0.03 0.03 0.04 0.04 0.04 0.04 0.03 0.03 0.03 0.04 0.05 0.05 0.05 0.05 0.04 0.04 0.04 0.04 0.03 0.02 0.02 0.02 0.02 0.01 0.01 0.01 0.01
0.01 0.01 0.01 0.02 0.02 0.02 0.02 0.02 0.02 0.03 0.03 0.03 0.02 0.03 0.03 0.03 0.03 0.03 0.03 0.02 0.02 0.02 0.02 0.03 0.03 0.03 0.03 0.03 0.04 0.03 0.03 0.03 0.04 0.04 0.03 0.03 0.02 0.02 0.01 0.01 0.01 0.01 0.01
0.01 0.01 0.02 0.03 0.04 0.04 0.04 0.04 0.03 0.03 0.03 0.02 0.02 0.02 0.02 0.02 0.02 0.02 0.02 0.02 0.02 0.02 0.02 0.02 0.03 0.03 0.02 0.02 0.02 0.02 0.02 0.03 0.03 0.03 0.03 0.02 0.02 0.02 0.01 0.01 0.01 0.01 0.01
0.01 0.01 0.02 0.03 0.05 0.07 0.07 0.08 0.06 0.04 0.03 0.03 0.02 0.02 0.01 0.01 0.01 0.01 0.01 0.02 0.02 0.02 0.02 0.02 0.02 0.03 0.03 0.02 0.02 0.02 0.03 0.03 0.02 0.03 0.03 0.02 0.02 0.02 0.02 0.01 0.01 0.01 0.01
0.01 0.01 0.01 0.01 0.03 0.05 0.07 0.07 0.08 0.08 0.05 0.04 0.03 0.03 0.02 0.02 0.02 0.01 0.01 0.02 0.02 0.02 0.02 0.02 0.02 0.02 0.03 0.03 0.03 0.03 0.03 0.02 0.02 0.03 0.03 0.03 0.03 0.02 0.02 0.01 0.01 0.01 0.01
0.02 0.01 0.01 0.02 0.01 0.03 0.04 0.05 0.06 0.06 0.06 0.05 0.04 0.03 0.02 0.02 0.02 0.01 0.01 0.01 0.01 0.02 0.02 0.02 0.02 0.02 0.03 0.03 0.03 0.03 0.02 0.02 0.02 0.03 0.03 0.03 0.02 0.02 0.01 0.01 0.01 0.01 0.02
0.02 0.02 0.02 0.02 0.02 0.02 0.02 0.03 0.04 0.04 0.04 0.04 0.04 0.03 0.03 0.02 0.02 0.01 0.01 0.01 0.01 0.01 0.02 0.02 0.02 0.02 0.02 0.01 0.01 0.02 0.02 0.02 0.02 0.02 0.02 0.02 0.02 0.02 0.02 0.02 0.02 0.02 0.02
0.03 0.02 0.02 0.02 0.02 0.03 0.03 0.02 0.03 0.03 0.02 0.02 0.02 0.02 0.02 0.02 0.01 0.02 0.02 0.01 0.01 0.02 0.03 0.03 0.02 0.02 0.01 0.01 0.01 0.01 0.01 0.01 0.01 0.01 0.01 0.01 0.01 0.02 0.02 0.02 0.02 0.02 0.02
0.02 0.02 0.02 0.02 0.03 0.03 0.02 0.02 0.03 0.03 0.02 0.03 0.02 0.02 0.02 0.01 0.01 0.01 0.02 0.02 0.03 0.03 0.03 0.02 0.02 0.02 0.01 0.01 0.01 0.01 0.01 0.01 0.01 0.00 0.00 0.01 0.01 0.01 0.01 0.01 0.01 0.01 0.02
MSLP
1009.74 1010.51 1011.24 1011.88 1012.42 1012.87 1013.22 1013.51 1013.76 1014.00 1014.25 1014.53 1014.83 1015.15 1015.46 1015.76 1016.03 1016.27 1016.48 1016.68 1016.87 1017.07 1017.30 1017.54 1017.80 1018.07 1018.31 1018.53 1018.70 1018.83 1018.92 1018.98 1019.04 1019.12 1019.24 1019.43 1019.69 1020.01 1020.39 1020.82 1021.26 1021.70 1022.13
1008.70 1009.52 1010.30 1010.99 1011.59 1012.08 1012.47 1012.79 1013.07 1013.32 1013.58 1013.86 1014.17 1014.49 1014.82 1015.13 1015.43 1015.71 1015.95 1016.18 1016.40 1016.63 1016.88 1017.14 1017.42 1017.70 1017.98 1018.23 1018.45 1018.62 1018.75 1018.85 1018.94 1019.03 1019.14 1019.29 1019.49 1019.75 1020.06 1020.41 1020.79 1021.19 1021.60
1007.72 1008.58 1009.40 1010.14 1010.78 1011.32 1011.76 1012.11 1012.42 1012.69 1012.96 1013.25 1013.56 1013.88 1014.22 1014.55 1014.87 1015.16 1015.43 1015.68 1015.92 1016.16 1016.42 1016.69 1016.98 1017.28 1017.58 1017.87 1018.13 1018.35 1018.54 1018.69 1018.82 1018.94 1019.05 1019.19 1019.34 1019.54 1019.77 1020.05 1020.35 1020.69 1021.05
1006.78 1007.67 1008.52 1009.30 1009.98 1010.56 1011.04 1011.44 1011.77 1012.08 1012.37 1012.67 1012.98 1013.31 1013.65 1013.98 1014.31 1014.61 1014.89 1015.14 1015.39 1015.63 1015.89 1016.16 1016.45 1016.76 1017.07 1017.39 1017.70 1017.98 1018.23 1018.44 1018.62 1018.78 1018.92 1019.05 1019.19 1019.33 1019.51 1019.70 1019.93 1020.19 1020.47
1005.89 1006.78 1007.64 1008.44 1009.15 1009.76 1010.28 1010.71 1011.09 1011.42 1011.74 1012.05 1012.38 1012.71 1013.05 1013.38 1013.70 1013.99 1014.27 1014.52 1014.76 1015.00 1015.24 1015.51 1015.80 1016.11 1016.44 1016.79 1017.13 1017.46 1017.77 1018.04 1018.29 1018.49 1018.67 1018.82 1018.95 1019.08 1019.21 1019.35 1019.51 1019.69 1019.90
1005.03 1005.89 1006.73 1007.52 1008.24 1008.87 1009.42 1009.89 1010.30 1010.67 1011.02 1011.36 1011.69 1012.02 1012.36 1012.68 1012.99 1013.27 1013.54 1013.78 1014.01 1014.24 1014.48 1014.74 1015.02 1015.34 1015.68 1016.04 1016.42 1016.79 1017.14 1017.47 1017.77 1018.03 1018.25 1018.43 1018.58 1018.71 1018.83 1018.94 1019.05 1019.18 1019.32
1004.19 1004.99 1005.78 1006.54 1007.24 1007.88 1008.45 1008.95 1009.40 1009.81 1010.19 1010.55 1010.90 1011.23 1011.56 1011.87 1012.17 1012.44 1012.69 1012.93 1013.16 1013.39 1013.62 1013.88 1014.17 1014.48 1014.83 1015.20 1015.59 1015.99 1016.37 1016.74 1017.08 1017.38 1017.65 1017.87 1018.05 1018.21 1018.33 1018.45 1018.55 1018.64 1018.74
1003.43 1004.13 1004.85 1005.54 1006.21 1006.84 1007.41 1007.94 1008.42 1008.87 1009.28 1009.66 1010.03 1010.37 1010.69 1011.00 1011.28 1011.55 1011.80 1012.03 1012.26 1012.50 1012.74 1013.01 1013.30 1013.61 1013.96 1014.33 1014.72 1015.12 1015.51 1015.89 1016.25 1016.58 1016.88 1017.14 1017.37 1017.56 1017.73 1017.87 1017.99 1018.09 1018.18
1002.81 1003.40 1004.01 1004.63 1005.24 1005.84 1006.41 1006.96 1007.47 1007.94 1008.38 1008.79 1009.17 1009.52 1009.85 1010.15 1010.43 1010.69 1010.95 1011.19 1011.43 1011.68 1011.93 1012.21 1012.50 1012.82 1013.16 1013.51 1013.88 1014.25 1014.62 1014.99 1015.34 1015.68 1015.99 1016.28 1016.55 1016.79 1017.01 1017.21 1017.38 1017.53 1017.65
1002.43 1002.89 1003.39 1003.91 1004.47 1005.03 1005.59 1006.14 1006.66 1007.17 1007.63 1008.06 1008.46 1008.82 1009.15 1009.45 1009.73 1010.00 1010.25 1010.51 1010.76 1011.02 1011.29 1011.57 1011.86 1012.17 1012.48 1012.80 1013.12 1013.45 1013.77 1014.10 1014.42 1014.73 1015.04 1015.35 1015.65 1015.94 1016.22 1016.48 1016.72 1016.94 1017.12
1002.38 1002.71 1003.09 1003.52 1004.00 1004.52 1005.06 1005.61 1006.14 1006.66 1007.15 1007.59 1008.00 1008.37 1008.70 1009.00 1009.28 1009.55 1009.81 1010.06 1010.33 1010.59 1010.86 1011.14 1011.41 1011.69 1011.96 1012.23 1012.49 1012.74 1013.00 1013.25 1013.51 1013.78 1014.07 1014.37 1014.69 1015.02 1015.35 1015.69 1016.01 1016.31 1016.57
1002.71 1002.92 1003.19 1003.54 1003.94 1004.41 1004.92 1005.45 1005.98 1006.51 1007.00 1007.45 1007.86 1008.23 1008.55 1008.85 1009.12 1009.38 1009.63 1009.88 1010.14 1010.39 1010.64 1010.89 1011.13 1011.36 1011.57 1011.77 1011.95 1012.12 1012.29 1012.46 1012.65 1012.86 1013.11 1013.39 1013.70 1014.06 1014.43 1014.83 1015.22 1015.60 1015.95
1003.43 1003.53 1003.70 1003.96 1004.30 1004.71 1005.18 1005.68 1006.20 1006.71 1007.19 1007.64 1008.04 1008.39 1008.71 1008.98 1009.23 1009.47 1009.69 1009.91 1010.13 1010.35 1010.56 1010.76 1010.94 1011.11 1011.25 1011.36 1011.46 1011.55 1011.63 1011.72 1011.83 1011.97 1012.16 1012.41 1012.71 1013.06 1013.46 1013.90 1014.35 1014.79 1015.21
1004.46 1004.47 1004.55 1004.73 1004.99 1005.35 1005.77 1006.23 1006.72 1007.20 1007.66 1008.08 1008.45 1008.78 1009.06 1009.30 1009.51 1009.70 1009.88 1010.04 1010.20 1010.36 1010.50 1010.63 1010.74 1010.83 1010.89 1010.93 1010.95 1010.96 1010.96 1010.98 1011.02 1011.10 1011.24 1011.44 1011.71 1012.05 1012.45 1012.90 1013.37 1013.86 1014.34
1005.67 1005.60 1005.61 1005.71 1005.91 1006.20 1006.56 1006.96 1007.40 1007.83 1008.25 1008.63 1008.96 1009.24 1009.48 1009.66 1009.82 1009.94 1010.05 1010.14 1010.22 1010.29 1010.35 1010.39 1010.42 1010.44 1010.43 1010.40 1010.36 1010.31 1010.26 1010.23 1010.22 1010.26 1010.35 1010.50 1010.73 1011.04 1011.41 1011.84 1012.32 1012.82 1013.31
1006.90 1006.76 1006.70 1006.74 1006.86 1007.08 1007.37 1007.72 1008.08 1008.46 1008.82 1009.14 1009.41 1009.64 1009.81 1009.93 1010.01 1010.05 1010.07 1010.07 1010.05 1010.03 1010.00 1009.96 1009.91 1009.86 1009.80 1009.73 1009.66 1009.58 1009.52 1009.46 1009.43 1009.44 1009.49 1009.61 1009.80 1010.06 1010.39 1010.78 1011.23 1011.70 1012.19
1007.98 1007.79 1007.67 1007.64 1007.70 1007.85 1008.07 1008.33 1008.63 1008.93 1009.22 1009.47 1009.68 1009.84 1009.94 1009.99 1009.99 1009.95 1009.88 1009.78 1009.67 1009.55 1009.44 1009.32 1009.21 1009.11 1009.02 1008.94 1008.87 1008.80 1008.74 1008.70 1008.68 1008.68 1008.72 1008.80 1008.95 1009.16 1009.43 1009.77 1010.16 1010.59 1011.04
1008.79 1008.56 1008.39 1008.31 1008.31 1008.38 1008.52 1008.72 1008.93 1009.16 1009.38 1009.57 1009.71 1009.80 1009.84 1009.82 1009.75 1009.63 1009.47 1009.29 1009.09 1008.89 1008.70 1008.53 1008.38 1008.26 1008.16 1008.09 1008.05 1008.02 1008.00 1007.99 1007.99 1008.01 1008.04 1008.11 1008.21 1008.37 1008.58 1008.85 1009.17 1009.54 1009.94
1009.28 1009.02 1008.82 1008.69 1008.63 1008.64 1008.72 1008.83 1008.98 1009.14 1009.29 1009.42 1009.50 1009.54 1009.52 1009.45 1009.31 1009.13 1008.91 1008.65 1008.39 1008.13 1007.89 1007.68 1007.51 1007.39 1007.32 1007.28 1007.28 1007.30 1007.34 1007.38 1007.41 1007.45 1007.49 1007.54 1007.61 1007.71 1007.86 1008.06 1008.31 1008.61 1008.97
1009.48 1009.20 1008.97 1008.80 1008.69 1008.65 1008.66 1008.71 1008.80 1008.90 1008.99 1009.07 1009.12 1009.12 1009.06 1008.95 1008.77 1008.55 1008.28 1007.99 1007.68 1007.39 1007.12 1006.90 1006.73 1006.63 1006.58 1006.59 1006.64 1006.72 1006.81 1006.89 1006.96 1007.02 1007.05 1007.08 1007.12 1007.17 1007.26 1007.40 1007.58 1007.83 1008.13
1009.45 1009.16 1008.90 1008.70 1008.55 1008.45 1008.41 1008.41 1008.45 1008.50 1008.57 1008.62 1008.64 1008.62 1008.55 1008.42 1008.23 1007.99 1007.70 1007.39 1007.07 1006.77 1006.49 1006.28 1006.13 1006.04 1006.03 1006.08 1006.18 1006.30 1006.43 1006.54 1006.63 1006.69 1006.72 1006.72 1006.72 1006.72 1006.76 1006.84 1006.97 1007.17 1007.43
1009.29 1008.98 1008.70 1008.46 1008.27 1008.13 1008.05 1008.01 1008.00 1008.03 1008.07 1008.11 1008.13 1008.11 1008.04 1007.92 1007.74 1007.51 1007.23 1006.93 1006.62 1006.32 1006.06 1005.86 1005.73 1005.68 1005.69 1005.77 1005.90 1006.04 1006.18 1006.31 1006.40 1006.44 1006.44 1006.41 1006.36 1006.32 1006.30 1006.33 1006.42 1006.57 1006.81
1009.08 1008.75 1008.44 1008.17 1007.93 1007.75 1007.62 1007.55 1007.52 1007.53 1007.56 1007.60 1007.63 1007.63 1007.58 1007.49 1007.34 1007.13 1006.89 1006.61 1006.32 1006.06 1005.82 1005.65 1005.54 1005.50 1005.54 1005.63 1005.76 1005.90 1006.04 1006.15 1006.21 1006.22 1006.18 1006.10 1006.00 1005.90 1005.84 1005.82 1005.87 1006.00 1006.20
1008.87 1008.51 1008.16 1007.85 1007.57 1007.34 1007.17 1007.06 1007.01 1007.01 1007.04 1007.08 1007.13 1007.16 1007.15 1007.10 1006.99 1006.83 1006.62 1006.38 1006.14 1005.91 1005.71 1005.56 1005.47 1005.46 1005.50 1005.59 1005.71 1005.83 1005.94 1006.01 1006.03 1005.99 1005.89 1005.76 1005.61 1005.46 1005.34 1005.28 1005.29 1005.39 1005.58
1008.66 1008.26 1007.87 1007.50 1007.17 1006.90 1006.69 1006.55 1006.48 1006.46 1006.49 1006.55 1006.62 1006.68 1006.71 1006.69 1006.63 1006.52 1006.36 1006.17 1005.97 1005.78 1005.62 1005.50 1005.44 1005.44 1005.48 1005.57 1005.67 1005.77 1005.84 1005.87 1005.84 1005.74 1005.59 1005.40 1005.19 1004.99 1004.82 1004.71 1004.69 1004.75 1004.90
1008.41 1007.97 1007.53 1007.11 1006.73 1006.41 1006.16 1005.99 1005.90 1005.87 1005.90 1005.96 1006.05 1006.14 1006.20 1006.22 1006.20 1006.14 1006.03 1005.89 1005.74 1005.60 1005.47 1005.39 1005.36 1005.37 1005.43 1005.51 1005.60 1005.68 1005.72 1005.71 1005.63 1005.49 1005.29 1005.05 1004.78 1004.53 1004.31 1004.15 1004.08 1004.09 1004.21
Thickness
5713 5710 5708 5706 5704 5702 5701 5700 5699 5698 5696 5695 5694 5693 5692 5690 5689 5686 5686 5684 5682 5681 5679 5678 5675 5675 5676 5676 5675 5673 5671 5669 5666 5670 5672 5671 5668 5667 5667 5666 5665 5665 5665
5709 5707 5705 5703 5701 5699 5698 5697 5696 5694 5694 5693 5692 5690 5689 5688 5686 5684 5682 5682 5680 5678 5676 5674 5673 5673 5671 5671 5670 5669 5668 5667 5664 5663 5665 5665 5664 5663 5662 5661 5662 5663 5662
5705 5703 5700 5699 5697 5696 5694 5694 5693 5692 5691 5690 5688 5687 5685 5684 5682 5681 5679 5678 5676 5675 5673 5671 5670 5669 5667 5667 5666 5666 5666 5665 5663 5661 5661 5661 5660 5660 5658 5657 5657 5656 5657
5699 5698 5695 5694 5693 5692 5691 5690 5689 5689 5687 5686 5685 5683 5682 5681 5679 5677 5676 5674 5672 5671 5670 5668 5667 5665 5664 5663 5662 5661 5661 5660 5658 5657 5657 5656 5655 5656 5653 5653 5652 5653 5653
5693 5692 5690 5689 5689 5688 5687 5686 5685 5684 5684 5683 5682 5680 5679 5678 5676 5673 5671 5670 5668 5667 5666 5664 5663 5661 5659 5658 5659 5658 5657 5656 5655 5654 5653 5652 5652 5649 5649 5649 5648 5648 5649
5688 5686 5685 5684 5683 5682 5682 5681 5680 5680 5679 5679 5678 5677 5675 5675 5670 5666 5665 5666 5664 5662 5661 5660 5660 5657 5655 5652 5652 5651 5651 5651 5651 5650 5650 5648 5647 5646 5645 5644 5643 5642 5642
5683 5682 5681 5679 5678 5678 5678 5676 5676 5675 5674 5674 5673 5672 5671 5668 5664 5661 5659 5660 5660 5659 5657 5656 5657 5657 5653 5652 5649 5647 5646 5645 5644 5645 5646 5644 5643 5642 5639 5639 5637 5637 5636
5678 5678 5677 5675 5674 5673 5672 5671 5671 5670 5669 5668 5668 5667 5666 5664 5659 5657 5655 5656 5657 5656 5655 5653 5651 5651 5650 5648 5648 5647 5646 5644 5642 5641 5641 5640 5638 5636 5634 5633 5632 5631 5631
5673 5673 5673 5672 5670 5668 5667 5667 5666 5666 5665 5664 5663 5662 5661 5659 5655 5652 5650 5653 5653 5652 5652 5650 5648 5647 5644 5641 5642 5642 5641 5641 5638 5636 5634 5632 5630 5628 5627 5627 5627 5627 5627
5667 5667 5668 5667 5665 5664 5663 5662 5662 5661 5660 5660 5659 5658 5657 5656 5651 5648 5645 5651 5650 5650 5648 5646 5643 5641 5638 5635 5636 5636 5635 5636 5636 5634 5630 5627 5626 5624 5621 5620 5622 5622 5622
5663 5662 5661 5661 5661 5660 5659 5658 5657 5657 5656 5655 5654 5654 5653 5651 5647 5643 5641 5645 5647 5646 5646 5644 5641 5635 5632 5630 5629 5631 5630 5629 5630 5629 5628 5626 5624 5623 5620 5618 5617 5617 5617
5657 5656 5655 5654 5656 5656 5654 5653 5653 5652 5652 5650 5649 5649 5649 5647 5643 5639 5637 5637 5637 5640 5640 5639 5636 5630 5626 5625 5625 5625 5623 5622 5625 5624 5623 5623 5621 5619 5618 5615 5613 5611 5610
5650 5650 5649 5648 5648 5648 5648 5648 5648 5648 5649 5649 5648 5646 5645 5644 5639 5635 5632 5631 5630 5632 5634 5631 5627 5623 5621 5621 5619 5618 5617 5619 5620 5619 5618 5618 5617 5615 5612 5610 5608 5606 5604
5642 5642 5642 5642 5642 5642 5641 5643 5643 5643 5643 5643 5642 5641 5640 5639 5637 5634 5631 5628 5624 5625 5625 5623 5619 5618 5617 5616 5615 5614 5614 5615 5615 5614 5614 5613 5612 5610 5608 5607 5605 5604 5602
5637 5637 5637 5638 5638 5636 5635 5635 5636 5635 5635 5634 5635 5635 5633 5631 5628 5623 5623 5624 5623 5621 5619 5618 5618 5617 5616 5615 5614 5613 5611 5610 5609 5609 5608 5607 5606 5605 5604 5603 5601 5600 5598
5631 5631 5632 5633 5633 5632 5631 5630 5626 5626 5624 5624 5623 5623 5624 5620 5617 5615 5613 5612 5610 5609 5610 5613 5612 5612 5611 5611 5610 5608 5607 5605 5604 5603 5603 5601 5601 5600 5599 5598 5597 5595 5594
5624 5625 5627 5628 5628 5627 5626 5626 5625 5621 5618 5617 5616 5614 5612 5610 5608 5606 5605 5603 5601 5600 5604 5607 5607 5606 5605 5605 5605 5603 5602 5600 5598 5596 5595 5594 5593 5593 5593 5592 5592 5591 5589
5620 5620 5621 5621 5622 5622 5622 5622 5622 5622 5621 5618 5613 5608 5606 5604 5601 5599 5597 5596 5598 5596 5600 5601 5601 5600 5599 5599 5598 5596 5595 5593 5591 5589 5588 5587 5586 5585 5585 5586 5586 5585 5585
5615 5615 5615 5616 5616 5617 5617 5618 5618 5617 5617 5616 5614 5609 5601 5599 5595 5593 5591 5595 5597 5596 5596 5596 5596 5595 5594 5592 5591 5589 5588 5586 5584 5582 5581 5580 5579 5578 5578 5579 5580 5577 5577
5609 5607 5607 5610 5612 5612 5612 5612 5612 5612 5611 5610 5609 5607 5602 5599 5598 5595 5592 5593 5593 5593 5592 5591 5591 5589 5588 5586 5584 5582 5581 5579 5577 5576 5575 5574 5573 5573 5572 5572 5573 5573 5574
5605 5604 5600 5604 5606 5606 5605 5606 5607 5606 5606 5605 5604 5601 5595 5597 5596 5594 5592 5590 5589 5589 5587 5586 5584 5583 5581 5579 5577 5575 5574 5572 5570 5569 5568 5567 5566 5566 5566 5567 5567 5568 5568
5600 5601 5600 5600 5599 5599 5599 5600 5601 5600 5599 5599 5599 5596 5589 5591 5591 5590 5587 5586 5585 5583 5581 5579 5578 5576 5574 5572 5570 5568 5566 5564 5563 5562 5561 5560 5560 5560 5560 5561 5561 5562 5562
5594 5594 5594 5593 5592 5590 5592 5594 5594 5593 5593 5592 5592 5591 5588 5586 5585 5583 5582 5580 5578 5576 5575 5573 5571 5569 5566 5564 5562 5560 5558 5557 5555 5554 5553 5553 5554 5554 5555 5555 5555 5555 5556
5587 5587 5587 5587 5586 5587 5587 5586 5587 5587 5587 5586 5584 5583 5582 5579 5578 5576 5575 5574 5572 5569 5567 5565 5563 5561 5558 5556 5554 5552 5549 5547 5546 5546 5545 5546 5547 5548 5549 5549 5549 5550 5550
5581 5581 5580 5579 5579 5579 5579 5580 5580 5579 5579 5578 5577 5576 5575 5573 5572 5570 5568 5567 5565 5563 5560 5558 5556 5554 5551 5548 5546 5543 5539 5537 5535 5536 5537 5539 5540 5541 5542 5543 5543 5544 5543
5574 5573 5572 5572 5572 5571 5571 5572 5572 5571 5571 5571 5570 5569 5568 5567 5565 5564 5561 5559 5558 5556 5554 5552 5549 5547 5544 5542 5538 5534 5531 5529 5528 5527 5528 5531 5532 5533 5534 5535 5535 5536 5536